Location: Catstown
(52.4386°N, 7.2633°W)
Time: 05:15:19
(UTC+00:00)

Okean 1 Rocket - Pass Details

Date: 18 September 2020
Orbit: 606 x 635 km, 82.5° (Epoch: 20 October)

Event Time Altitude Azimuth Distance (km) Brightness Sun altitude
Exits shadow 21:28:28 31° 223° (SW) 1,115 4.3 -24.9°
Maximum altitude 21:30:21 54° 285° (WNW) 775 3.7 -25.2°
Drops below altitude 10° 21:34:47 10° 3° (N) 2,036 6.2 -25.7°
Sets 21:37:06 0° 8° (N) 2,948 7.0 -25.9°
